Regional Weather Roundup
Issued by NWS

Home | Current Version | Previous Version | Graphics & Text | Print | Product List | Glossary On
Versions: 1 2 3 4 5 6 7 8 9 10 11 12 13 14 15 16 17 18 19 20 21 22 23 24 25 26 27 28 29 30 31 32 33 34 35 36 37 38 39 40 41 42 43 44 45 46 47 48 49 50
000
ASUS45 KSLC 300610
RWRUT

UTAH REGIONAL WEATHER ROUNDUP
NATIONAL WEATHER SERVICE SALT LAKE CITY UT
1200 AM MDT MON MAR 30 2015

UTZ001>011-023>025-300700-

NORTHERN UTAH

CITY           SKY/WX    TMP DP  RH WIND       PRES   REMARKS
BRIGHAM CITY   CLEAR     45  27  50 CALM      30.21S
HILL AFB       CLEAR     48  17  28 E12       30.21R
LOGAN          CLEAR     39  28  64 E3        30.22R
OGDEN          CLEAR     46  18  32 S9        30.19S
PROVO AIRPORT  CLEAR     43  27  52 S6        30.21S
SALT LAKE CITY CLEAR     49  24  37 SE6       30.19R
VERNAL         CLEAR     41  21  44 W5        30.19R
WENDOVER       CLEAR     45  10  24 S3        30.19R
HEBER CITY     CLEAR     32  21  64 SE5       30.25R WCI  27
WEST JORDAN    CLEAR     46  23  39 SW6       30.20F

$$

UTZ012>022-026-027-300700-

SOUTHERN/CENTRAL UTAH

CITY           SKY/WX    TMP DP  RH WIND       PRES   REMARKS
BLANDING       PTCLDY    52  17  25 N8        30.26S
BRYCE CANYON   CLEAR     37  26  64 W10       30.32R WCI  30
CEDAR CITY     CLEAR     52  20  28 SE5       30.19S
DELTA          PTCLDY    50  19  29 N7        30.17S
HANKSVILLE     MOCLDY    55  10  16 NW3       30.16R
MILFORD        PTCLDY    45  16  31 VRB3      30.18R
MOAB/CYNLANDS  CLEAR     49   4  16 VRB5      30.13R
PRICE          CLEAR     44   8  23 E3        30.21R
ST GEORGE      CLEAR     66  25  20 CALM      30.08R
KANAB          CLEAR     52  23  32 CALM      30.21R

$$

REGIONAL REPORTS     COLORADO/ARIZONA

CITY           SKY/WX    TMP DP  RH WIND       PRES   REMARKS
CRAIG, CO      CLEAR     32  21  64 CALM      30.24S
GRAND JUNCTION CLEAR     41  13  31 E3        30.15S
RIFLE          CLEAR     47  12  24 SE8       30.21R
MONTROSE       CLEAR     49  17  28 SE13      30.23S
CORTEZ         CLEAR     39  15  37 NE8       30.23S WCI  33
PAGE, AZ       MOCLDY    63  22  20 E5        30.11S
GRAND CANYON   MOCLDY    39  23  52 CALM      30.28R
KINGMAN        PTCLDY    58  24  27 S13       30.09S
FLAGSTAFF      PTCLDY    38  22  52 CALM      30.31S

$$

REGIONAL REPORTS    NEVADA/IDAHO/WYOMING

CITY           SKY/WX    TMP DP  RH WIND       PRES   REMARKS
LAS VEGAS, NV  PTCLDY    73  24  16 W7        29.97R
ELY            CLEAR     40  13  33 CALM      30.23R
ELKO           CLEAR     42   8  24 E5        30.20R
POCATELLO, ID  CLEAR     42  17  36 S12       30.20S
BURLEY         CLEAR     41  24  51 NW3       30.19R
EVANSTON, WY   CLEAR     40  15  36 S6        30.28S
ROCK SPRINGS   CLEAR     41  12  30 SW10      30.24S
KEMMERER       PTCLDY    37  12  35 CALM      30.28S

$$



USA.gov is the U.S. government's official web portal to all federal, state and local government web resources and services.